Resoconti di bolidi

Aug 01, 2019 - Aug 31, 2019
Trovati resoconti: 2071  in August 2019  Pagina 23 / 42
IDDate e tempo T.U. (Tempo Universale)Data e tempo localeRegioneCittàStatoDur.MagnitudineSuono differitoSuono contemporaneoFrag.OsservatoreLivello di esperienza
Evento 3842-2019
3842bx2019-08-17 19:20 UT2019-08-17 21:20 CESTFR Bons-en-ChablaisAuvergne-Rhône-Alpes≈3,5s -23---KatiaD 1
3842by2019-08-17 19:30 UT2019-08-17 21:30 CESTFR CouxAuvergne-Rhône-Alpes≈3,5s -8--MathieuM 3
3842bz2019-08-17 19:25 UT2019-08-17 21:25 CESTFR DoussardAuvergne-Rhône-Alpes≈3,5s -13--?MarieT 2
3842c2019-08-17 20:05 UT2019-08-17 22:05 CESTFR Ubaye-Serre-PonçonProvence-Alpes-Côte d'Azur≈3,5s -18---Sophie S 1
3842ca2019-08-17 19:45 UT2019-08-17 21:45 CESTFR L'Argentière-la-BesséeProvence-Alpes-Côte d'Azur<1s -13---guyG 3
3842cb2019-08-17 20:05 UT2019-08-17 22:05 CESTIT Toscana≈3,5s -22---DeboraP 1
3842cc2019-08-17 19:26 UT2019-08-17 21:26 CESTFR VernassalAuvergne-Rhône-Alpes≈1,5s -9---TimothéeF 4
3842cd2019-08-17 19:26 UT2019-08-17 21:26 CESTFR ConcoulesOccitanie≈1,5s -10--NicolasL 5
3842ce2019-08-17 19:30 UT2019-08-17 21:30 CESTIT SormanoLombardia≈7,5s -8--?AlessandroF 5
3842cf2019-08-17 19:20 UT2019-08-17 21:20 CESTFR Dommartin-lès-RemiremontGrand Est≈3,5s -5---MaximeP 1
3842cg2019-08-17 19:26 UT2019-08-17 21:26 CESTFR Savas-MépinAuvergne-Rhône-Alpes≈1,5s -13???YannickS 1
3842ch2019-08-17 19:30 UT2019-08-17 21:30 CESTIT CogneAosta≈1,5s -15---Emanuele M 3
3842ci2019-08-17 19:30 UT2019-08-17 21:30 CESTFR YouxAuvergne-Rhône-Alpes≈1,5s -20---RégisT 2
3842cj2019-08-17 19:26 UT2019-08-17 21:26 CESTFR PeypinProvence-Alpes-Côte d'Azur≈1,5s -7???Jean-MarieM 2
3842ck2019-08-17 19:00 UT2019-08-17 21:00 CESTFR Les Ollières-sur-EyrieuxAuvergne-Rhône-Alpes<1s -20--LaurentG 2
3842cm2019-08-17 20:00 UT2019-08-17 22:00 CESTFR MarchauxBourgogne-Franche-Comté≈3,5s -14--QuentinP 2
3842cn2019-08-17 19:45 UT2019-08-17 21:45 CESTFR MagnyGrand Est≈1,5s 0-?RobertW 3
3842co2019-08-17 18:50 UT2019-08-17 20:50 CESTFR TriganceProvence-Alpes-Côte d'Azur≈1,5s -7--LaurentM 3
3842cp2019-08-17 19:00 UT2019-08-17 21:00 CESTFR Crest-VolandAuvergne-Rhône-Alpes≈1,5s -20---BettyR 1
3842cq2019-08-17 19:15 UT2019-08-17 21:15 CESTIT Emilia-Romagna≈1,5s -6--AlessandroO 4
3842cr2019-08-17 19:20 UT2019-08-17 21:20 CESTFR SaixOccitanie≈3,5s -26---Gérard P 1
3842cs2019-08-17 19:25 UT2019-08-17 21:25 CESTFR Saint-Jeoire-PrieuréAuvergne-Rhône-Alpes≈1,5s -9--EmmanuelF 3
3842ct2019-08-17 19:25 UT2019-08-17 21:25 CESTFR Saint-PérayAuvergne-Rhône-Alpes≈1,5s -7?-?CaroleG 1
3842cu2019-08-17 19:26 UT2019-08-17 21:26 CESTFR SeyneProvence-Alpes-Côte d'Azur<1s -9---FaustinM 4
3842cv2019-08-17 19:26 UT2019-08-17 21:26 CESTIT PadovaVeneto≈1,5s -12??NicolaS 3
3842cw2019-08-17 19:30 UT2019-08-17 21:30 CESTFR AlleyrasAuvergne-Rhône-Alpes≈3,5s -27-?-CHRISTOPHEC 2
3842cx2019-08-17 19:30 UT2019-08-17 21:30 CESTFR Le Monestier-du-PercyAuvergne-Rhône-Alpes≈3,5s -12---ChristopheS 2
3842cy2019-08-17 19:30 UT2019-08-17 21:30 CESTFR Pouligney-LusansBourgogne-Franche-Comté≈7,5s -11??-julienG 2
3842cz2019-08-17 19:30 UT2019-08-17 21:30 CESTFR Bourg-en-BresseAuvergne-Rhône-Alpes≈1,5s -14---EstelleJ 1
3842d2019-08-17 20:00 UT2019-08-17 22:00 CESTFR Grésy-sur-AixAuvergne-Rhône-Alpes≈7,5s -13---audreyG 1
3842da2019-08-17 19:40 UT2019-08-17 21:40 CESTFR TaulignanAuvergne-Rhône-Alpes≈3,5s -27---M-LuceC 3
3842db2019-08-17 20:00 UT2019-08-17 22:00 CESTFR Buis-les-BaronniesAuvergne-Rhône-Alpes? -22---FedericaD 1
3842dc2019-08-17 20:00 UT2019-08-17 22:00 CESTFR MorillonAuvergne-Rhône-Alpes≈3,5s -13--?loicL 1
3842dd2019-08-17 19:25 UT2019-08-17 21:25 CESTFR ValenceAuvergne-Rhône-Alpes≈3,5s -18--Laurent et ValérieG 2
3842de2019-08-17 19:15 UT2019-08-17 21:15 CESTFR MirabelAuvergne-Rhône-Alpes≈1,5s -24--?CamilleS 1
3842df2019-08-17 19:25 UT2019-08-17 21:25 CESTFR Saint-PriestAuvergne-Rhône-Alpes≈1,5s -13???ChristelleH 2
3842dg2019-08-17 19:45 UT2019-08-17 21:45 CESTFR BroyeBourgogne-Franche-Comté≈1,5s -12---MatthieuH 3
3842dh2019-08-17 19:30 UT2019-08-17 21:30 CESTIT PlanazValle d'Aosta≈3,5s -8---MaurizioR 1
3842di2019-08-17 20:00 UT2019-08-17 22:00 CESTFR Auvergne-Rhône-Alpes≈1,5s -25---jean-marcP 1
3842dj2019-08-17 20:00 UT2019-08-17 22:00 CESTFR Les BellevilleAuvergne-Rhône-Alpes≈3,5s -23---ValérieP 1
3842dk2019-08-17 19:03 UT2019-08-17 21:03 CESTFR VilleboisAuvergne-Rhône-Alpes≈1,5s -13---Lionel T 1
3842dl2019-08-17 20:00 UT2019-08-17 22:00 CESTFR Les BellevilleAuvergne-Rhône-Alpes≈1,5s -10---LucieP 2
3842dm2019-08-17 19:30 UT2019-08-17 21:30 CESTFR Cornillon-sur-l'OuleAuvergne-Rhône-Alpes≈1,5s -22---AnneC 1
3842e2019-08-17 20:00 UT2019-08-17 22:00 CESTFR Saint-AlbanAuvergne-Rhône-Alpes≈3,5s -16---EmelineN 1
3842f2019-08-17 20:00 UT2019-08-17 22:00 CESTFR OyeuAuvergne-Rhône-Alpes≈1,5s -9--AntoineL 2
3842g2019-08-17 20:00 UT2019-08-17 22:00 CESTFR Soing-Cubry-CharentenayBourgogne-Franche-Comté≈3,5s -12---Jean-françois A 2
3842h2019-08-17 20:00 UT2019-08-17 22:00 CESTFR Saint-Rémy-de-MaurienneAuvergne-Rhône-Alpes≈1,5s -10---MauricetteF 1
3842i2019-08-17 20:00 UT2019-08-17 22:00 CESTFR GrenobleAuvergne-Rhône-Alpes≈1,5s -12---SylvainD 4
3842j2019-08-17 19:30 UT2019-08-17 21:30 CESTFR AigueblancheAuvergne-Rhône-Alpes≈1,5s -13---FabienB 2
3842k2019-08-17 19:26 UT2019-08-17 21:26 CESTFR MaglandAuvergne-Rhône-Alpes≈3,5s -10--JenniferD 1